Onweer radar Meer informatie blitzortung!


Regen radar Meer informatie rain snow radar


Bezoek onze andere website:

Template documentation
and downloads

And another site



15 daagse weersverwachting Villach (AT)

  • Overzicht
  • Per uur
  • 15 dagen
  • Extra
  • Vergelijk
  • Kaarten
  • Dagkaart
  • Meer »
  • Info
  • Statistieken
  • Directe link
    Temp 6h Neerslag Wind  
 07:08     16:31    Daglengte: 9:23 Vandaag
19:00
10.4 mm
2
 07:10     16:30    Daglengte: 9:20 Morgen
01:00
38.1 mm
1
07:00
10.6 mm
1
13:00
10°
 
1
19:00
 
2
 07:11     16:29    Daglengte: 9:18 Zondag 17 Nov
01:00
35.8 mm
2
07:00
50.6 mm
2
13:00
11°
57.3 mm
2
19:00
67.7 mm
2
 07:12     16:28    Daglengte: 9:16 Maandag 18 Nov
01:00
87.3 mm
1
07:00
 
2
13:00
27.1 mm
2
Locatie info
Region: Kärnten
Latitude: 46.6181°N
Longitude: 13.8493°E
494 masl
Postcode: 9500
Temp/Neerslag /Baro Onweer/DauwpuntSneeuw
    Temp Baro 1h Neerslag Dauwpunt Wind UV BewolkingSneeuw  
 07:08     16:31    Daglengte: 9:23 Vandaag
17:00
Voelt als: 6.2°
1006.9 hPa 4.9 mm
48%
6.6°
2
Windvlaag: 1.6 m/s
91%6 cm
18:00
Voelt als: 6.6°
1006.9 hPa 2.6 mm
82%
6.9°
2
Windvlaag: 2.3 m/s
90%5 cm
19:00
Voelt als: 6.3°
1006.3 hPa 2.9 mm
82%
7.2°
2
Windvlaag: 2.5 m/s
90%5 cm
20:00
Voelt als: 6.8°
1005.6 hPa 3.8 mm
82%
7.4°
2
Windvlaag: 2.2 m/s
90%5 cm
21:00
Voelt als: 6.6°
1005.6 hPa 5.7 mm
82%
7.3°
2
Windvlaag: 1.1 m/s
91%5 cm
22:00
Voelt als: 6.8°
1005.2 hPa 7.8 mm
82%
7.1°
2
Windvlaag: -0.5 m/s
89%5 cm
23:00
Voelt als: 7.9°
1005.1 hPa 7.8 mm
82%
7.5°
1
Windvlaag: 0.1 m/s
90%5 cm
 07:10     16:30    Daglengte: 9:20 Morgen
00:00
Voelt als: 8.0°
1005.9 hPa 7.8 mm
82%
7.4°
1
Windvlaag: -0.3 m/s
85%5 cm
01:00
Voelt als: 8.1°
1006.1 hPa 5.1 mm
82%
7.3°
1
Windvlaag: 0.9 m/s
84%5 cm
02:00
Voelt als: 7.8°
1006.8 hPa 5.5 mm
82%
6.9°
1
Windvlaag: -0 m/s
82%5 cm
03:00
Voelt als: 7.0°
1007.4 hPa 5.2 mm
82%
5.8°
1
Windvlaag: -0.4 m/s
76%5 cm
04:00
Voelt als: 5.8°
1008.0 hPa
82%
5.2°
1
Windvlaag: -0.4 m/s
85%5 cm
05:00
Voelt als: 5.2°
1008.5 hPa
24%
4.5°
1
Windvlaag: -0.5 m/s
82%5 cm
06:00
Voelt als: 5.0°
1009.4 hPa
15%
4.5°
1
Windvlaag: -0.4 m/s
67%5 cm
07:00
Voelt als: 4.6°
1010.3 hPa
14%
4.1°
1
Windvlaag: -0.1 m/s
77%5 cm
08:00
Voelt als: 5.1°
1011.4 hPa
14%
3.8°
1
Windvlaag: -0.5 m/s
60%4 cm
09:00
Voelt als: 6.9°
1012.1 hPa
16%
5.6°
1
Windvlaag: -0.7 m/s
83%4 cm
10:00
Voelt als: 8.3°
1012.4 hPa
18%
6.2°
1
Windvlaag: -1 m/s
75%4 cm
11:00
1012.6 hPa
27%
6.3°
1
Windvlaag: -1.2 m/s
73%4 cm
12:00
10°
Voelt als: 9.8°
1012.3 hPa
24%
6.4°
1
Windvlaag: -1.6 m/s
73%4 cm
13:00
10°
1012.4 hPa
14%
6.5°
1
Windvlaag: -1.5 m/s
64%4 cm
14:00
10°
1012.4 hPa
14%
6.8°
1
Windvlaag: -1.7 m/s
85%4 cm
15:00
Voelt als: 8.9°
1012.8 hPa
15%
6.9°
1
Windvlaag: -1.2 m/s
89%4 cm
16:00
Voelt als: 7.9°
1012.8 hPa
27%
6.5°
1
Windvlaag: 0.9 m/s
91%4 cm
17:00
Voelt als: 7.3°
1013.1 hPa
68%
6.4°
1
Windvlaag: 0.7 m/s
91%4 cm
18:00
Voelt als: 6.7°
1013.1 hPa
33%
6.2°
2
Windvlaag: 1.1 m/s
91%4 cm
19:00
Voelt als: 6.1°
1013.0 hPa
34%
6.3°
2
Windvlaag: 0.6 m/s
91%3 cm
20:00
Voelt als: 6.0°
1012.7 hPa
76%
5.9°
1
Windvlaag: 0.5 m/s
91%3 cm
21:00
Voelt als: 6.4°
1011.9 hPa 6.1 mm
82%
5.9°
1
Windvlaag: 0.6 m/s
91%3 cm
22:00
Voelt als: 5.8°
1011.0 hPa 6.6 mm
82%
5.8°
1
Windvlaag: 0.5 m/s
91%3 cm
23:00
Voelt als: 5.5°
1010.6 hPa 7.5 mm
82%
5.8°
2
Windvlaag: 0.5 m/s
90%3 cm
 07:11     16:29    Daglengte: 9:18 Zondag 17 Nov
00:00
Voelt als: 5.5°
1010.0 hPa 7.7 mm
82%
6.1°
2
Windvlaag: 0.3 m/s
90%3 cm
01:00
Voelt als: 5.8°
1009.5 hPa 7.9 mm
82%
6.3°
2
Windvlaag: 1.6 m/s
91%3 cm
02:00
Voelt als: 5.8°
1008.8 hPa 8.2 mm
82%
6.5°
2
Windvlaag: 1.3 m/s
91%3 cm
03:00
Voelt als: 6.1°
1008.2 hPa 8.6 mm
82%
6.5°
2
Windvlaag: 1.1 m/s
90%3 cm
04:00
Voelt als: 6.0°
1007.5 hPa 8.7 mm
82%
6.6°
2
Windvlaag: 1.6 m/s
90%3 cm
05:00
Voelt als: 6.3°
1006.9 hPa 8.2 mm
82%
6.7°
2
Windvlaag: 1.5 m/s
90%3 cm
06:00
Voelt als: 6.5°
1006.6 hPa 8.5 mm
82%
6.9°
2
Windvlaag: 1.5 m/s
91%3 cm
07:00
Voelt als: 6.9°
1006.4 hPa 8.5 mm
82%
7.2°
2
Windvlaag: 1.3 m/s
91%3 cm
08:00
Voelt als: 7.2°
1006.2 hPa 9.3 mm
82%
7.4°
2
Windvlaag: 1.5 m/s
90%3 cm
09:00
Voelt als: 7.6°
1006.4 hPa 10.0 mm
82%
7.6°
2
Windvlaag: 1.7 m/s
90%3 cm
10:00
Voelt als: 8.6°
1006.1 hPa 9.8 mm
100%
7.9°
2
Windvlaag: 2.3 m/s
99%3 cm
11:00
Voelt als: 8.9°
1005.8 hPa 9.2 mm
100%
8.0°
1
Windvlaag: 1.4 m/s
97%2 cm
12:00
10°
1006.1 hPa 9.1 mm
100%
8.7°
2
Windvlaag: 1.2 m/s
100%2 cm
13:00
11°
1006.3 hPa 9.9 mm
100%
9.0°
2
Windvlaag: 1.1 m/s
99%2 cm
14:00
11°
1006.3 hPa 13.0 mm
100%
8.4°
2
Windvlaag: 1.3 m/s
97%2 cm
15:00
10°
1006.2 hPa
100%
7.8°
2
Windvlaag: 2.6 m/s
100%2 cm
16:00
Voelt als: 8.3°
1006.3 hPa 13.1 mm
100%
7.0°
2
Windvlaag: 2.5 m/s
97%2 cm
17:00
Voelt als: 7.7°
1006.7 hPa 14.3 mm
100%
6.3°
2
Windvlaag: 2.4 m/s
97%2 cm
18:00
Voelt als: 7.5°
1006.7 hPa 13.9 mm
100%
6.6°
2
Windvlaag: 1.9 m/s
96%2 cm
19:00
Voelt als: 6.2°
1007.3 hPa 13.5 mm
100%
6.6°
2
Windvlaag: 1.4 m/s
99%2 cm
20:00
Voelt als: 5.6°
1007.4 hPa 14.2 mm
100%
6.3°
2
Windvlaag: 1.3 m/s
99%2 cm
21:00
Voelt als: 5.8°
1007.5 hPa 14.4 mm
100%
6.1°
1
Windvlaag: 1.5 m/s
99%2 cm
22:00
Voelt als: 5.5°
1007.8 hPa 15.5 mm
100%
6.0°
2
Windvlaag: 2.1 m/s
99%2 cm
23:00
Voelt als: 5.1°
1007.7 hPa 14.2 mm
100%
6.1°
2
Windvlaag: 0.8 m/s
100%2 cm
 07:12     16:28    Daglengte: 9:16 Maandag 18 Nov
00:00
Voelt als: 5.3°
1007.6 hPa 14.5 mm
100%
6.1°
2
Windvlaag: 0.5 m/s
100%2 cm
01:00
Voelt als: 5.4°
1007.5 hPa 14.6 mm
100%
5.8°
1
Windvlaag: 1 m/s
100%2 cm
02:00
Voelt als: 5.0°
1007.6 hPa
100%
5.4°
1
Windvlaag: 0.8 m/s
98%2 cm
03:00
Voelt als: 4.6°
1007.5 hPa
100%
5.2°
2
Windvlaag: -0.7 m/s
98%2 cm
04:00
Voelt als: 4.0°
1008.1 hPa
100%
5.0°
2
Windvlaag: -0.1 m/s
97%2 cm
05:00
Voelt als: 3.6°
1008.6 hPa
100%
4.7°
2
Windvlaag: 0.7 m/s
84%2 cm
06:00
Voelt als: 2.9°
1009.1 hPa
100%
4.4°
2
Windvlaag: 0.4 m/s
61%2 cm
07:00
Voelt als: 2.5°
1009.8 hPa
100%
3.7°
2
Windvlaag: 0.6 m/s
73%2 cm
08:00
Voelt als: 3.3°
1010.4 hPa 27.1 mm
100%
3.3°
2
Windvlaag: 3.3 m/s
68%2 cm
09:00
Voelt als: 4.5°
1010.7 hPa
90%
3.2°
1
Windvlaag: 3.5 m/s
75%2 cm
10:00
Voelt als: 5.7°
1010.9 hPa
42%
3.2°
1
Windvlaag: 3.7 m/s
77%2 cm
11:00
Voelt als: 6.1°
1011.1 hPa
28%
3.1°
2
Windvlaag: 2.8 m/s
78%2 cm
12:00
Voelt als: 7.7°
1011.2 hPa
38%
2.8°
2
Windvlaag: 4.1 m/s
78%2 cm
13:00
Voelt als: 8.6°
1011.3 hPa
95%
2.4°
2
Windvlaag: 0.8 m/s
67%2 cm
14:00
Voelt als: 8.1°
1013.7 hPa 83.0 mm
100%
2.9°
2
Windvlaag: 7.9 m/s
71%2 cm
15:00
Voelt als: 7.4°
1014.2 hPa 83.0 mm
100%
2.7°
2
Windvlaag: 11.3 m/s
73%1 cm
16:00
Voelt als: 6.7°
1014.7 hPa 83.0 mm
100%
2.7°
2
Windvlaag: 8.9 m/s
75%1 cm
Temp/Neerslag /Baro Onweer/DauwpuntSneeuw
    Temp Baro Neerslag Dauwpunt Wind BewolkingSneeuw  
 07:08     16:31    Daglengte: 9:23 Vandaag
19:00
Voelt als: 6.3°
1006.3 hPa 10.4 mm 7.2°
2
90%5 cm
22:00
Voelt als: 6.8°
1005.2 hPa 17.3 mm 7.1°
2
89%5 cm
 07:10     16:30    Daglengte: 9:20 Morgen
01:00
Voelt als: 8.1°
1006.1 hPa 20.8 mm 7.3°
1
84%5 cm
04:00
Voelt als: 5.8°
1008.0 hPa 10.6 mm 5.2°
1
85%5 cm
07:00
Voelt als: 4.6°
1010.3 hPa   4.1°
1
77%5 cm
10:00
Voelt als: 8.3°
1012.4 hPa   6.2°
1
75%4 cm
13:00
10°
1012.4 hPa   6.5°
1
64%4 cm
16:00
Voelt als: 7.9°
1012.8 hPa   6.5°
1
91%4 cm
19:00
Voelt als: 6.1°
1013.0 hPa   6.3°
2
91%3 cm
22:00
Voelt als: 5.8°
1011.0 hPa 12.7 mm 5.8°
1
91%3 cm
 07:11     16:29    Daglengte: 9:18 Zondag 17 Nov
01:00
Voelt als: 5.8°
1009.5 hPa 23.1 mm 6.3°
2
91%3 cm
04:00
Voelt als: 6.0°
1007.5 hPa 25.5 mm 6.6°
2
90%3 cm
07:00
Voelt als: 6.9°
1006.4 hPa 25.2 mm 7.2°
2
91%3 cm
10:00
Voelt als: 8.6°
1006.1 hPa 29.1 mm 7.9°
2
99%3 cm
13:00
11°
1006.3 hPa 28.1 mm 9.0°
2
99%2 cm
16:00
Voelt als: 8.3°
1006.3 hPa 26.1 mm 7.0°
2
97%2 cm
19:00
Voelt als: 6.2°
1007.3 hPa 41.6 mm 6.6°
2
99%2 cm
22:00
Voelt als: 5.5°
1007.8 hPa 44.1 mm 6.0°
2
99%2 cm
 07:12     16:28    Daglengte: 9:16 Maandag 18 Nov
01:00
Voelt als: 5.4°
1007.5 hPa 43.2 mm 5.8°
1
100%2 cm
04:00
Voelt als: 4.0°
1008.1 hPa   5.0°
2
97%2 cm
07:00
Voelt als: 2.5°
1009.8 hPa   3.7°
2
73%2 cm
10:00
Voelt als: 5.7°
1010.9 hPa 27.1 mm 3.2°
1
77%2 cm
13:00
Voelt als: 8.6°
1011.3 hPa   2.4°
2
67%2 cm
16:00
Voelt als: 6.7°
1014.7 hPa 249.1 mm 2.7°
2
75%1 cm
19:00
Voelt als: 5.2°
1016.3 hPa 249.7 mm 2.3°
1
94%1 cm
22:00
1018.1 hPa 105.9 mm 3.6°
1
92%
 07:14     16:27    Daglengte: 9:13 Dinsdag 19 Nov
01:00
1018.5 hPa 106.3 mm 4.5°
1
92%
04:00
Voelt als: 4.6°
1018.4 hPa 106.3 mm 4.1°
1
92%
07:00
Voelt als: 3.4°
1018.3 hPa 108.0 mm 4.0°
1
92%
10:00
Voelt als: 4.9°
1017.2 hPa 115.8 mm 5.1°
1
92%
13:00
Voelt als: 6.3°
1015.9 hPa 128.5 mm 6.0°
1
92%
16:00
Voelt als: 6.0°
1016.1 hPa 145.8 mm 5.7°
1
92%
19:00
Voelt als: 5.6°
1016.3 hPa 152.7 mm 5.3°
1
92%
22:00
Voelt als: 5.6°
1016.5 hPa 156.7 mm 5.4°
1
92%
 07:15     16:26    Daglengte: 9:11 Woensdag 20 Nov
01:00
Voelt als: 5.6°
1016.7 hPa 159.1 mm 5.4°
1
92%
04:00
1016.7 hPa 159.3 mm 5.0°
1
66%
07:00
Voelt als: 5.0°
1016.8 hPa 159.4 mm 4.6°
1
40%
10:00
Voelt als: 7.2°
1016.9 hPa 159.4 mm 5.5°
1
57%
13:00
1016.9 hPa 159.4 mm 6.3°
1
74%
16:00
1017.1 hPa 159.5 mm 5.8°
1
60%
19:00
1017.4 hPa 159.5 mm 5.3°
1
46%
22:00
Voelt als: 5.2°
1017.6 hPa 159.5 mm 4.5°
1
69%
 07:17     16:25    Daglengte: 9:08 Donderdag 21 Nov
01:00
Voelt als: 3.8°
1017.8 hPa 159.5 mm 3.7°
1
92%
04:00
Voelt als: 3.8°
1017.3 hPa 159.5 mm 3.8°
1
91%
07:00
Voelt als: 3.8°
1016.9 hPa 159.5 mm 3.8°
1
91%
10:00
Voelt als: 5.8°
1016.1 hPa 159.6 mm 3.8°
2
72%
13:00
Voelt als: 8.0°
1015.2 hPa 159.7 mm 3.2°
2
52%
16:00
Voelt als: 5.7°
1015.8 hPa 160.2 mm 3.0°
2
38%
19:00
Voelt als: 3.6°
1016.6 hPa 160.7 mm 2.5°
1
24%
22:00
Voelt als: 2.7°
1018.0 hPa 160.7 mm 2.4°
1
45%
 07:18     16:24    Daglengte: 9:06 Vrijdag 22 Nov
01:00
Voelt als: 1.9°
1019.3 hPa 160.8 mm 2.4°
1
67%
04:00
Voelt als: 2.2°
1019.9 hPa 160.8 mm 2.4°
1
74%
07:00
Voelt als: 2.6°
1020.4 hPa 160.8 mm 2.6°
1
80%
10:00
Voelt als: 6.7°
1019.8 hPa 160.8 mm 4.4°
2
84%
13:00
11°
1019.1 hPa 160.8 mm 5.6°
2
88%
16:00
10°
Voelt als: 9.1°
1019.6 hPa   5.8°
2
84%
19:00
Voelt als: 7.5°
1020.3 hPa 321.8 mm 5.6°
1
80%
 07:19     16:23    Daglengte: 9:04 Zaterdag 23 Nov
01:00
Voelt als: 6.8°
1020.8 hPa 322.3 mm 5.9°
1
90%
07:00
Voelt als: 6.6°
1020.9 hPa 323.6 mm 6.1°
1
86%
13:00
11°
1020.2 hPa 324.4 mm 7.9°
0
89%
19:00
1019.9 hPa 324.9 mm 7.1°
0
89%
 07:21     16:23    Daglengte: 9:02 Zondag 24 Nov
01:00
1019.8 hPa 325.5 mm 5.9°
1
34%
07:00
Voelt als: 6.7°
1018.7 hPa 326.3 mm 6.4°
0
90%
13:00
10°
1017.2 hPa 347.6 mm 7.1°
0
82%
19:00
1016.2 hPa 375.8 mm 7.2°
1
80%
 07:22     16:22    Daglengte: 9:00 Maandag 25 Nov
01:00
1015.0 hPa 383.8 mm 7.1°
1
90%
07:00
1012.6 hPa 386.5 mm 8.4°
0
1%
13:00
10°
1012.3 hPa 1.3 mm 7.9°
1
71%
19:00
1013.1 hPa 0.7 mm 6.3°
0
74%
 07:23     16:21    Daglengte: 8:58 Dinsdag 26 Nov
01:00
1013.3 hPa 0.4 mm 5.5°
0
70%
07:00
Voelt als: 5.4°
1012.9 hPa 0.3 mm 4.8°
0
58%
13:00
10°
1012.0 hPa 0.3 mm 7.6°
1
57%
19:00
Voelt als: 6.6°
1012.4 hPa 0.8 mm 6.2°
1
63%
 07:25     16:21    Daglengte: 8:56 Woensdag 27 Nov
01:00
1012.2 hPa 1.2 mm 5.4°
0
68%
07:00
Voelt als: 5.6°
1011.5 hPa 1.4 mm 5.0°
0
74%
13:00
Voelt als: 9.3°
1010.7 hPa 1.3 mm 7.4°
1
71%
19:00
Voelt als: 6.2°
1011.6 hPa 0.6 mm 5.8°
1
68%
 07:26     16:20    Daglengte: 8:54 Donderdag 28 Nov
01:00
1012.1 hPa 0.6 mm 5.0°
0
62%
07:00
1012.3 hPa 0.7 mm 4.4°
0
59%
13:00
1011.8 hPa 0.7 mm 6.6°
1
54%
19:00
Voelt als: 5.9°
1013.0 hPa 0.8 mm 5.5°
0
60%
 07:27     16:20    Daglengte: 8:53 Vrijdag 29 Nov
01:00
Voelt als: 5.3°
1013.6 hPa 0.8 mm 4.9°
0
62%
07:00
Voelt als: 4.8°
1013.8 hPa 0.4 mm 4.2°
0
57%
13:00
Voelt als: 9.0°
1012.9 hPa 0.7 mm 7.0°
1
60%
19:00
1013.7 hPa 0.6 mm 5.7°
0
65%
 07:28     16:19    Daglengte: 8:51 Zaterdag 30 Nov
01:00
Voelt als: 5.7°
1013.5 hPa 0.8 mm 5.3°
0
66%
07:00
1013.2 hPa 1.6 mm 4.8°
0
63%
13:00
Voelt als: 9.1°
1012.1 hPa 1.7 mm 6.9°
1
63%
  CAPE Lifted Index Hail Supercell Tornado SRH 3km CL BTM PRES CL TOP PRES Swiss DWD icon SMHI TS
 07:08     16:31    Daglengte: 9:23 Vandaag
17:00 0 J/kg 0.1 K 0 % 0 % 0 % 0 m²/s² 0 0 1.45 61
18:00 0 J/kg 0.3 K 0 % 0 % 0 % 0 m²/s² 0 0 0.99 63
19:00 1 J/kg 0.3 K 0 % 0 % 0 % 0 m²/s² 0 0 0.75 63
20:00 0 J/kg 0.6 K 0 % 0 % 0 % 0 m²/s² 0 0 0.78 63
21:00 0 J/kg 1.7 K 0 % 0 % 0 % 0 m²/s² 0 0 1.73 63
22:00 0 J/kg 1.3 K 0 % 0 % 0 % 0 m²/s² 0 0 1.33 63
23:00 25 J/kg 1.6 K 0 % 0 % 0 % 0 m²/s² 0 0 1.72 63
 07:10     16:30    Daglengte: 9:20 Morgen
00:00 13 J/kg 1.8 K 0 % 0 % 0 % 0 m²/s² 0 0 2.88 63
01:00 34 J/kg 1.7 K 0 % 0 % 0 % 0 m²/s² 0 0 3.05 61
02:00 75 J/kg 2.1 K 0 % 0 % 0 % 0 m²/s² 0 0 3.21 61
03:00 101 J/kg 2.8 K 0 % 0 % 0 % 0 m²/s² 0 0 4.24 61
04:00 104 J/kg 3.4 K 0 % 0 % 0 % 0 m²/s² 0 0 4.27 3
05:00 24 J/kg 3.5 K 0 % 0 % 0 % 0 m²/s² 0 0 4.76 3
06:00 13 J/kg 3.7 K 0 % 0 % 0 % 0 m²/s² 0 0 5.05 2
07:00 33 J/kg 3.6 K 0 % 0 % 0 % 0 m²/s² 0 0 5.22 3
08:00 27 J/kg 3.7 K 0 % 0 % 0 % 0 m²/s² 0 0 5.11 3
09:00 7 J/kg 3.2 K 0 % 0 % 0 % 0 m²/s² 0 0 4.67 3
10:00 7 J/kg 3.6 K 0 % 0 % 0 % 0 m²/s² 0 0 6.3 3
11:00 25 J/kg 3.6 K 0 % 0 % 0 % 0 m²/s² 0 0 6.75 3
12:00 63 J/kg 2.6 K 0 % 0 % 0 % 0 m²/s² 0 0 4.61 3
13:00 73 J/kg 2.3 K 0 % 0 % 0 % 0 m²/s² 0 0 5.39 3
14:00 96 J/kg 2.2 K 0 % 0 % 0 % 0 m²/s² 0 0 2.86 3
15:00 89 J/kg 3.6 K 0 % 0 % 0 % 0 m²/s² 0 0 5.91 3
16:00 24 J/kg 4.0 K 0 % 0 % 0 % 0 m²/s² 0 0 5.53 3
17:00 62 J/kg 4.3 K 0 % 0 % 0 % 0 m²/s² 0 0 4.78 3
18:00 71 J/kg 4.6 K 0 % 0 % 0 % 0 m²/s² 0 0 4.81 3
19:00 54 J/kg 5.3 K 0 % 0 % 0 % 0 m²/s² 0 0 5.6 3
20:00 39 J/kg 4.7 K 0 % 0 % 0 % 0 m²/s² 0 0 4.94 3
21:00 12 J/kg 3.2 K 0 % 0 % 0 % 0 m²/s² 0 0 3.35 61
22:00 2 J/kg 1.5 K 0 % 0 % 0 % 0 m²/s² 0 0 1.71 61
23:00 0 J/kg 0.6 K 0 % 0 % 0 % 0 m²/s² 0 0 1.14 63
 07:11     16:29    Daglengte: 9:18 Zondag 17 Nov
00:00 0 J/kg 0.0 K 0 % 0 % 0 % 0 m²/s² 0 0 0.45 61
01:00 1 J/kg 0.4 K 0 % 0 % 0 % 0 m²/s² 0 0 1.6 61
02:00 1 J/kg -0.5 K 0 % 0 % 0 % 0 m²/s² 0 0 0.31 63
03:00 1 J/kg -0.4 K 0 % 0 % 0 % 0 m²/s² 0 0 0.56 63
04:00 1 J/kg -0.4 K 0 % 0 % 0 % 0 m²/s² 0 0 0.8 63
05:00 6 J/kg -0.7 K 0 % 0 % 0 % 0 m²/s² 0 0 0.62 63
06:00 5 J/kg -0.7 K 0 % 0 % 0 % 0 m²/s² 0 0 0.56 61
07:00 0 J/kg -0.6 K 0 % 0 % 0 % 0 m²/s² 0 0 0.57 61
08:00 0 J/kg -0.7 K 0 % 0 % 0 % 0 m²/s² 0 0 0.62 63
09:00 0 J/kg -0.9 K 0 % 0 % 0 % 0 m²/s² 0 0 0.3 63
10:00 0 J/kg -0.4 K 0 % 0 % 0 % 0 m²/s² 0 0 1.01 63
11:00 4 J/kg 0.3 K 0 % 0 % 0 % 0 m²/s² 0 0 2.25 63
12:00 56 J/kg -0.9 K 0 % 0 % 0 % 0 m²/s² 0 0 0.51 63
13:00 88 J/kg 0.2 K 0 % 0 % 0 % 0 m²/s² 0 0 0.38 63
14:00 57 J/kg 0.8 K 0 % 0 % 0 % 0 m²/s² 0 0 1.19 61
15:00 78 J/kg -0.3 K 0 % 0 % 0 % 0 m²/s² 0 0 0 61
16:00 63 J/kg 1.0 K 0 % 0 % 0 % 0 m²/s² 0 0 1.9 61
17:00 30 J/kg 2.0 K 0 % 0 % 0 % 0 m²/s² 0 0 3.32 63
18:00 37 J/kg 2.4 K 0 % 0 % 0 % 0 m²/s² 0 0 3.72 61
19:00 9 J/kg 2.3 K 0 % 0 % 0 % 0 m²/s² 0 0 2.48 61
20:00 9 J/kg 2.1 K 0 % 0 % 0 % 0 m²/s² 0 0 2.52 61
21:00 22 J/kg 2.2 K 0 % 0 % 0 % 0 m²/s² 0 0 2.29 61
22:00 38 J/kg 2.9 K 0 % 0 % 0 % 0 m²/s² 0 0 3.05 63
23:00 45 J/kg 3.1 K 0 % 0 % 0 % 0 m²/s² 0 0 3.25 61
 07:12     16:28    Daglengte: 9:16 Maandag 18 Nov
00:00 36 J/kg 3.6 K 0 % 0 % 0 % 0 m²/s² 0 0 3.81 61
01:00 38 J/kg 3.8 K 0 % 0 % 0 % 0 m²/s² 0 0 4.01 61
02:00 44 J/kg 3.8 K 0 % 0 % 0 % 0 m²/s² 0 0 4.04 61
03:00 37 J/kg 3.2 K 0 % 0 % 0 % 0 m²/s² 0 0 3.41 61
04:00 29 J/kg 3.0 K 0 % 0 % 0 % 0 m²/s² 0 0 3.27 61
05:00 3 J/kg 3.0 K 0 % 0 % 0 % 0 m²/s² 0 0 3.33 61
06:00 0 J/kg 2.5 K 0 % 0 % 0 % 0 m²/s² 0 0 2.83 61
07:00 0 J/kg 2.1 K 0 % 0 % 0 % 0 m²/s² 0 0 2.34 61
08:00 0 J/kg 3.3 K 0 % 0 % 0 % 0 m²/s² 0 0 3.99 61
09:00 4 J/kg 2.2 K 0 % 0 % 0 % 0 m²/s² 0 0 2.74 61
10:00 16 J/kg 0.9 K 0 % 0 % 0 % 0 m²/s² 0 0 1.29 3
11:00 0 J/kg 0.3 K 0 % 0 % 0 % 0 m²/s² 0 0 0.66 3
12:00 7 J/kg 0.7 K 0 % 0 % 0 % 0 m²/s² 0 0 1.03 3
13:00 28 J/kg 0.4 K 0 % 0 % 0 % 0 m²/s² 0 0 0.76 3
14:00 69 J/kg -0.2 K 0 % 0 % 0 % 0 m²/s² 0 0 1.9
15:00 86 J/kg 0.3 K 0 % 0 % 0 % 0 m²/s² 0 0 3.66
16:00 31 J/kg 1.5 K 0 % 0 % 0 % 0 m²/s² 0 0 6.21
Temp Baro Wind Neerslag
  EWN Forecast EWN WRFDA DWD ICON FMI HIRLAM MET Norway GFS
 07:08     16:31    Daglengte: 9:23 Vandaag
19:00 7.7° 1006.3 hPa 2.1 m/s 10.4 mm 9.4° 1001.8 hPa 6.7 m/s 14.4 mm 6.6° 1006.1 hPa 1.0 m/s 15.4 mm 8.5° 1006.7 hPa 4.5 m/s 0.0 mm 7.9° 1006.7 hPa 1.7 m/s 3.9 mm 8.7° 1004.0 hPa 2.3 m/s
22:00 7.9° 1005.2 hPa 1.9 m/s 17.3 mm 7.9° 1003.3 hPa 2.2 m/s 54.6 mm 6.7° 1004.8 hPa 1.3 m/s 14.6 mm 10.8° 1004.6 hPa 5.2 m/s 0.0 mm 8.0° 1005.7 hPa 1.0 m/s 9.5 mm 8.8° 1003.8 hPa 1.8 m/s
 07:10     16:30    Daglengte: 9:20 Morgen
01:00 8.2° 1006.1 hPa 1.1 m/s 20.8 mm 8.6° 1004.8 hPa 2.9 m/s 71.6 mm 6.3° 1006.3 hPa 1.1 m/s 12.0 mm 9.3° 1005.9 hPa 0.8 m/s 0.0 mm 8.8° 1006.1 hPa 0.9 m/s 14.1 mm 8.4° 1005.8 hPa 1.8 m/s
04:00 6.3° 1008.0 hPa 1.2 m/s 10.6 mm 7.8° 1007.0 hPa 1.8 m/s 73.1 mm 5.0° 1008.8 hPa 1.8 m/s 0.3 mm 6.1° 1008.0 hPa 0.6 m/s 0.0 mm 8.6° 1007.4 hPa 0.6 m/s 0.0 mm 7.4° 1007.7 hPa 1.4 m/s
07:00 5.2° 1010.3 hPa 1.3 m/s 0.0 mm 6.0° 1008.9 hPa 1.7 m/s 73.6 mm 4.4° 1010.7 hPa 1.5 m/s 0.0 mm 5.0° 1010.9 hPa 1.0 m/s 0.0 mm 7.5° 1009.9 hPa 0.6 m/s 0.3 mm 6.9° 1010.4 hPa 1.4 m/s
10:00 8.4° 1012.4 hPa 1.1 m/s 0.0 mm 10.1° 1010.8 hPa 1.4 m/s 73.6 mm 7.2° 1012.2 hPa 0.6 m/s 0.0 mm 9.4° 1012.0 hPa 1.4 m/s 0.0 mm 8.5° 1012.7 hPa 0.6 m/s 0.3 mm 7.8° 1012.9 hPa 1.4 m/s
13:00 10.3° 1012.4 hPa 1.1 m/s 0.0 mm 11.3° 1011.5 hPa 1.0 m/s 73.9 mm 8.9° 1012.6 hPa 0.4 m/s 0.0 mm 12.0° 1011.8 hPa 2.1 m/s 0.0 mm 10.3° 1012.4 hPa 0.8 m/s 0.0 mm 8.8° 1013.6 hPa 1.3 m/s
16:00 8.2° 1012.8 hPa 1.2 m/s 0.0 mm 9.6° 1011.2 hPa 1.1 m/s 76.0 mm 7.9° 1012.4 hPa 0.6 m/s 0.0 mm 9.6° 1012.5 hPa 2.1 m/s 0.0 mm 8.3° 1012.9 hPa 1.1 m/s 0.6 mm 7.4° 1014.0 hPa 0.7 m/s
19:00 7.2° 1013.0 hPa 1.8 m/s 0.0 mm 8.4° 1012.2 hPa 3.0 m/s 83.6 mm 6.5° 1012.9 hPa 1.3 m/s 0.0 mm 7.7° 1011.9 hPa 2.2 m/s 0.0 mm 7.6° 1012.9 hPa 1.1 m/s 3.6 mm 6.5° 1015.1 hPa 0.5 m/s
22:00 6.5° 1011.0 hPa 1.4 m/s 12.7 mm 6.6° 1010.6 hPa 1.3 m/s 111.0 mm 6.2° 1011.9 hPa 0.2 m/s 2.6 mm 7.9° 1008.9 hPa 1.9 m/s 0.0 mm 7.0° 1010.6 hPa 1.3 m/s 6.3 mm 6.3° 1014.1 hPa 0.7 m/s
 07:11     16:29    Daglengte: 9:18 Zondag 17 Nov
01:00 7.2° 1009.5 hPa 2.1 m/s 23.1 mm 7.6° 1009.2 hPa 2.8 m/s 123.8 mm 5.8° 1010.4 hPa 0.4 m/s 8.0 mm 11.4° 1007.2 hPa 4.3 m/s 0.0 mm 7.4° 1008.8 hPa 1.8 m/s 4.9 mm 6.9° 1012.3 hPa 1.5 m/s
04:00 7.5° 1007.5 hPa 2.3 m/s 25.5 mm 10.1° 1007.3 hPa 5.4 m/s 131.3 mm 5.7° 1008.7 hPa 0.5 m/s 12.1 mm 11.8° 1006.1 hPa 5.6 m/s 0.0 mm 7.6° 1006.8 hPa 1.9 m/s 5.4 mm 7.6° 1010.0 hPa 1.7 m/s
07:00 8.0° 1006.4 hPa 1.9 m/s 25.2 mm 10.8° 1005.9 hPa 4.8 m/s 134.1 mm 6.9° 1006.8 hPa 1.4 m/s 9.2 mm 11.6° 1005.9 hPa 5.2 m/s 0.0 mm 7.9° 1005.6 hPa 0.8 m/s 7.9 mm 8.3° 1008.3 hPa 2.3 m/s
10:00 9.1° 1006.1 hPa 1.6 m/s 29.1 mm 11.3° 1005.7 hPa 5.3 m/s 134.7 mm 8.4° 1007.0 hPa 0.9 m/s 13.9 mm 9.6° 1004.6 hPa 1.4 m/s 18.6 mm 9.2° 1007.5 hPa 2.3 m/s
13:00 10.6° 1006.3 hPa 1.7 m/s 28.1 mm 12.0° 1004.4 hPa 5.5 m/s 137.7 mm 8.3° 1005.7 hPa 1.2 m/s 23.5 mm 10.9° 1006.5 hPa 1.1 m/s 4.8 mm 9.5° 1006.1 hPa 2.5 m/s
16:00 9.4° 1006.3 hPa 2.2 m/s 26.1 mm 11.6° 1003.1 hPa 5.4 m/s 181.2 mm 7.0° 1006.2 hPa 2.1 m/s 6.2 mm 9.6° 1007.8 hPa 1.1 m/s 0.0 mm 9.7° 1004.2 hPa 1.5 m/s
19:00 7.4° 1007.3 hPa 2.0 m/s 41.6 mm 10.3° 1003.1 hPa 5.4 m/s 188.3 mm 6.2° 1007.5 hPa 1.8 m/s 6.4 mm 7.1° 1009.1 hPa 0.5 m/s 0.0 mm 9.5° 1004.7 hPa 2.3 m/s
22:00 6.5° 1007.8 hPa 1.6 m/s 44.1 mm 9.4° 1004.2 hPa 2.0 m/s 194.5 mm 6.0° 1008.0 hPa 1.6 m/s 5.3 mm 5.7° 1009.8 hPa 1.2 m/s 0.0 mm 9.5° 1005.3 hPa 1.6 m/s
 07:12     16:28    Daglengte: 9:16 Maandag 18 Nov
01:00 6.1° 1007.5 hPa 1.4 m/s 43.2 mm 8.6° 1002.8 hPa 1.7 m/s 207.4 mm 5.9° 1007.4 hPa 1.2 m/s 2.0 mm 5.0° 1010.8 hPa 1.3 m/s 0.0 mm 9.0° 1005.1 hPa 1.4 m/s
04:00 5.4° 1008.1 hPa 1.8 m/s 0.0 mm 8.0° 1001.6 hPa 1.8 m/s 224.4 mm 5.5° 1007.1 hPa 1.4 m/s 2.9 mm 3.4° 1011.4 hPa 1.7 m/s 0.0 mm 8.0° 1005.7 hPa 2.0 m/s
07:00 3.9° 1009.8 hPa 1.6 m/s 0.0 mm 7.2° 1001.6 hPa 1.5 m/s 239.1 mm 5.4° 1007.6 hPa 1.2 m/s 2.8 mm 1.8° 1013.3 hPa 1.3 m/s 0.0 mm 6.0° 1007.4 hPa 2.0 m/s
10:00 6.5° 1010.9 hPa 1.4 m/s 27.1 mm 8.3° 1004.4 hPa 1.1 m/s 242.4 mm 6.7° 1008.9 hPa 0.5 m/s 0.4 mm 5.9° 1013.8 hPa 1.9 m/s 7.7° 1009.5 hPa 1.9 m/s
13:00 9.4° 1011.3 hPa 1.9 m/s 0.0 mm 8.7° 1006.5 hPa 1.2 m/s 247.0 mm 8.7° 1008.6 hPa 1.2 m/s 0.0 mm 10.1° 1014.3 hPa 2.5 m/s 8.3° 1010.3 hPa 1.7 m/s
16:00 7.6° 1014.7 hPa 1.7 m/s 249.1 mm 7.9° 1007.7 hPa 1.4 m/s 249.1 mm 7.6° 1015.8 hPa 1.8 m/s 6.5° 1011.1 hPa 1.2 m/s
19:00 5.5° 1016.3 hPa 1.0 m/s 249.7 mm 7.9° 1009.8 hPa 1.3 m/s 249.7 mm 5.1° 1017.4 hPa 1.0 m/s 5.3° 1013.5 hPa 1.0 m/s
22:00 5.4° 1018.1 hPa 0.8 m/s 105.9 mm 5.3° 1018.4 hPa 0.8 m/s 6.0° 1014.3 hPa 1.0 m/s 105.9 mm
 07:14     16:27    Daglengte: 9:13 Dinsdag 19 Nov
01:00 5.5° 1018.5 hPa 0.7 m/s 106.3 mm 5.4° 1018.9 hPa 0.7 m/s 6.3° 1014.5 hPa 1.2 m/s 106.3 mm
04:00 4.6° 1018.4 hPa 0.8 m/s 106.3 mm 4.6° 1018.8 hPa 0.9 m/s 4.8° 1013.7 hPa 0.2 m/s 106.3 mm
07:00 3.9° 1018.3 hPa 1.0 m/s 108.0 mm 3.8° 1018.7 hPa 1.1 m/s 5.3° 1013.4 hPa 0.4 m/s 108.0 mm
10:00 5.3° 1017.2 hPa 1.1 m/s 115.8 mm 5.3° 1017.6 hPa 1.1 m/s 5.6° 1012.2 hPa 0.4 m/s 115.8 mm
13:00 6.7° 1015.9 hPa 1.2 m/s 128.5 mm 6.8° 1016.5 hPa 1.2 m/s 5.5° 1009.9 hPa 0.8 m/s 128.5 mm
16:00 6.1° 1016.1 hPa 1.0 m/s 145.8 mm 6.2° 1016.6 hPa 1.1 m/s 5.4° 1009.5 hPa 0.3 m/s 145.8 mm
19:00 5.6° 1016.3 hPa 0.8 m/s 152.7 mm 5.6° 1016.8 hPa 0.9 m/s 5.8° 1010.3 hPa 0.3 m/s 152.7 mm
22:00 5.6° 1016.5 hPa 0.8 m/s 156.7 mm 5.6° 1016.9 hPa 0.8 m/s 6.0° 1011.8 hPa 0.2 m/s 156.7 mm
 07:15     16:26    Daglengte: 9:11 Woensdag 20 Nov
01:00 5.6° 1016.7 hPa 0.8 m/s 159.1 mm 5.6° 1017.0 hPa 0.7 m/s 6.1° 1013.0 hPa 1.4 m/s 159.1 mm
04:00 5.4° 1016.7 hPa 0.8 m/s 159.3 mm 5.3° 1017.0 hPa 0.8 m/s 6.0° 1013.8 hPa 1.5 m/s 159.3 mm
07:00 5.0° 1016.8 hPa 0.9 m/s 159.4 mm 5.0° 1017.0 hPa 0.8 m/s 5.3° 1015.1 hPa 1.5 m/s 159.4 mm
10:00 7.2° 1016.9 hPa 0.9 m/s 159.4 mm 7.3° 1017.0 hPa 0.8 m/s 6.6° 1016.0 hPa 1.8 m/s 159.4 mm
13:00 9.4° 1016.9 hPa 0.9 m/s 159.4 mm 9.6° 1017.0 hPa 0.8 m/s 7.1° 1015.8 hPa 1.8 m/s 159.4 mm
16:00 7.8° 1017.1 hPa 0.7 m/s 159.5 mm 8.0° 1017.2 hPa 0.7 m/s 5.1° 1016.1 hPa 1.7 m/s 159.5 mm
19:00 6.2° 1017.4 hPa 0.6 m/s 159.5 mm 6.4° 1017.4 hPa 0.5 m/s 3.7° 1017.6 hPa 1.7 m/s 159.5 mm
22:00 5.2° 1017.6 hPa 0.9 m/s 159.5 mm 5.5° 1017.6 hPa 0.8 m/s 3.0° 1018.1 hPa 1.8 m/s 159.5 mm
 07:17     16:25    Daglengte: 9:08 Donderdag 21 Nov
01:00 4.4° 1017.8 hPa 1.1 m/s 159.5 mm 4.5° 1017.8 hPa 1.1 m/s 3.0° 1017.5 hPa 1.7 m/s 159.5 mm
04:00 4.4° 1017.3 hPa 1.1 m/s 159.5 mm 4.4° 1017.4 hPa 1.1 m/s 3.9° 1016.4 hPa 1.6 m/s 159.5 mm
07:00 4.3° 1016.9 hPa 1.1 m/s 159.5 mm 4.3° 1017.0 hPa 1.0 m/s 4.4° 1015.8 hPa 1.8 m/s 159.5 mm
10:00 6.8° 1016.1 hPa 1.7 m/s 159.6 mm 6.9° 1016.1 hPa 1.7 m/s 5.7° 1015.0 hPa 1.9 m/s 159.6 mm
13:00 9.3° 1015.2 hPa 2.4 m/s 159.7 mm 9.5° 1015.3 hPa 2.4 m/s 6.6° 1013.5 hPa 2.3 m/s 159.7 mm
16:00 7.0° 1015.8 hPa 1.9 m/s 160.2 mm 7.0° 1016.0 hPa 1.9 m/s 6.5° 1013.3 hPa 2.0 m/s 160.2 mm
19:00 4.7° 1016.6 hPa 1.5 m/s 160.7 mm 4.5° 1016.8 hPa 1.4 m/s 6.5° 1014.1 hPa 2.1 m/s 160.7 mm
22:00 3.9° 1018.0 hPa 1.5 m/s 160.7 mm 3.7° 1018.2 hPa 1.4 m/s 5.9° 1015.1 hPa 2.4 m/s 160.7 mm
 07:18     16:24    Daglengte: 9:06 Vrijdag 22 Nov
01:00 3.2° 1019.3 hPa 1.5 m/s 160.8 mm 2.9° 1019.7 hPa 1.4 m/s 6.3° 1014.9 hPa 2.5 m/s 160.8 mm
04:00 3.4° 1019.9 hPa 1.4 m/s 160.8 mm 3.1° 1020.3 hPa 1.3 m/s 6.3° 1015.2 hPa 2.4 m/s 160.8 mm
07:00 3.6° 1020.4 hPa 1.3 m/s 160.8 mm 3.3° 1020.9 hPa 1.2 m/s 6.5° 1015.2 hPa 2.2 m/s 160.8 mm
10:00 7.6° 1019.8 hPa 1.6 m/s 160.8 mm 7.5° 1020.2 hPa 1.5 m/s 8.4° 1015.2 hPa 2.4 m/s 160.8 mm
13:00 11.5° 1019.1 hPa 1.9 m/s 160.8 mm 11.7° 1019.6 hPa 1.9 m/s 9.2° 1013.9 hPa 2.3 m/s 160.9 mm
16:00 9.5° 1019.6 hPa 1.5 m/s 160.9 mm 9.6° 1020.2 hPa 1.4 m/s 8.3° 1013.6 hPa 2.2 m/s 160.9 mm
19:00 7.6° 1020.3 hPa 1.1 m/s 160.9 mm 7.6° 1020.8 hPa 1.0 m/s 7.7° 1014.4 hPa 2.1 m/s 160.9 mm
 07:19     16:23    Daglengte: 9:04 Zaterdag 23 Nov
01:00 6.8° 1020.8 hPa 1.0 m/s 161.3 mm 6.7° 1021.4 hPa 0.9 m/s 8.2° 1014.8 hPa 1.8 m/s 161.3 mm
07:00 6.6° 1020.9 hPa 0.6 m/s 162.0 mm 6.5° 1021.4 hPa 0.6 m/s 8.1° 1015.0 hPa 0.9 m/s 162.0 mm
13:00 10.9° 1020.2 hPa 0.5 m/s 162.3 mm 10.9° 1020.8 hPa 0.4 m/s 11.1° 1013.8 hPa 1.1 m/s 162.3 mm
19:00 9.0° 1019.9 hPa 0.4 m/s 162.5 mm 9.0° 1020.4 hPa 0.4 m/s 8.9° 1013.8 hPa 0.7 m/s 162.5 mm
 07:21     16:23    Daglengte: 9:02 Zondag 24 Nov
01:00 5.8° 1019.8 hPa 0.7 m/s 162.8 mm 5.5° 1020.4 hPa 0.7 m/s 9.0° 1012.8 hPa 1.1 m/s 162.8 mm
07:00 6.7° 1018.7 hPa 0.5 m/s 163.4 mm 6.5° 1019.4 hPa 0.4 m/s 9.3° 1011.2 hPa 1.3 m/s 163.4 mm
13:00 9.8° 1017.2 hPa 0.4 m/s 180.3 mm 9.8° 1017.8 hPa 0.4 m/s 9.3° 1011.1 hPa 0.2 m/s 180.3 mm
19:00 8.5° 1016.2 hPa 0.5 m/s 189.2 mm 8.4° 1016.6 hPa 0.5 m/s 9.1° 1011.9 hPa 1.0 m/s 189.2 mm
 07:22     16:22    Daglengte: 9:00 Maandag 25 Nov
01:00 7.5° 1015.0 hPa 0.5 m/s 193.1 mm 7.3° 1015.2 hPa 0.5 m/s 9.3° 1013.0 hPa 0.7 m/s 193.1 mm
07:00 8.4° 1012.6 hPa 0.4 m/s 193.3 mm 8.4° 1012.6 hPa 0.4 m/s 193.3 mm
13:00 9.8° 1012.3 hPa 1.0 m/s 1.3 mm
19:00 6.8° 1013.1 hPa 0.5 m/s 0.7 mm
 07:23     16:21    Daglengte: 8:58 Dinsdag 26 Nov
01:00 6.0° 1013.3 hPa 0.1 m/s 0.4 mm
07:00 5.4° 1012.9 hPa 0.0 m/s 0.3 mm
13:00 9.7° 1012.0 hPa 0.9 m/s 0.3 mm
19:00 6.6° 1012.4 hPa 0.5 m/s 0.8 mm
 07:25     16:21    Daglengte: 8:56 Woensdag 27 Nov
01:00 5.9° 1012.2 hPa 0.3 m/s 1.2 mm
07:00 5.6° 1011.5 hPa 0.3 m/s 1.4 mm
13:00 9.3° 1010.7 hPa 1.2 m/s 1.3 mm
19:00 6.2° 1011.6 hPa 0.8 m/s 0.6 mm
 07:26     16:20    Daglengte: 8:54 Donderdag 28 Nov
01:00 5.5° 1012.1 hPa 0.4 m/s 0.6 mm
07:00 5.0° 1012.3 hPa 0.2 m/s 0.7 mm
13:00 8.9° 1011.8 hPa 1.1 m/s 0.7 mm
19:00 5.9° 1013.0 hPa 0.5 m/s 0.8 mm
 07:27     16:20    Daglengte: 8:53 Vrijdag 29 Nov
01:00 5.3° 1013.6 hPa 0.1 m/s 0.8 mm
07:00 4.8° 1013.8 hPa 0.1 m/s 0.4 mm
13:00 9.0° 1012.9 hPa 1.0 m/s 0.7 mm
19:00 6.2° 1013.7 hPa 0.4 m/s 0.6 mm
 07:28     16:19    Daglengte: 8:51 Zaterdag 30 Nov
01:00 5.7° 1013.5 hPa 0.1 m/s 0.8 mm
07:00 5.4° 1013.2 hPa 0.3 m/s 1.6 mm
13:00 9.1° 1012.1 hPa 0.6 m/s 1.7 mm
FMI Hirlam - 7.5 km EWN WRFDA - 12 km DWD ICON - 7 km GFS - 25 km Basiskaart






























































Updatetijd (Europe/Amsterdam) Resolutie Lengte Stap
FMI Hirlam 12:15, 18:15, 00:15, 06:15 7.5 km 49h 1h
EWN WRFDA 14:30, 20:30, 02:30, 08:30 12 km 73h 1h
DWD ICON 10:45, 16:45, 22:45, 04:45 7 km 75h 1h
GFS 13:30, 19:30, 01:30, 07:30 25 km 237h 3h
30+ mm
25-30 mm
20-25 mm
15-20 mm
10-15 mm
6-10 mm
4-6 mm
2-4 mm
1-2 mm
0.5-1 mm
0.2-0.5 mm
0.1-0.2 mm
30+ mm
25-30 mm
20-25 mm
15-20 mm
10-15 mm
6-10 mm
4-6 mm
2-4 mm
1-2 mm
0.5-1 mm
0.2-0.5 mm
0.1-0.2 mm
Sneeuwval
Natte sneeuw
Hagel
Vorst
30+ mm
25-30 mm
20-25 mm
15-20 mm
10-15 mm
6-10 mm
4-6 mm
2-4 mm
1-2 mm
0.5-1 mm
0.2-0.5 mm
0.1-0.2 mm
Sneeuwval
Natte sneeuw
Hagel
Vorst
Onweer
50 mm
40 mm
30 mm
26 mm
22 mm
18 mm
14 mm
10 mm
9 mm
8 mm
7 mm
6 mm
5 mm
4.5 mm
4 mm
3.5 mm
3 mm
2.5 mm
2 mm
1.5 mm
1 mm
0.8 mm
0.6 mm
0.4 mm
0.2 mm
0.05 mm
35°
30°
25°
20°
15°
10°
-5°
-10°
-15°
-20°
-25°
-30°
-35°
33> m/s
29 m/s
25 m/s
21 m/s
17 m/s
14 m/s
11 m/s
8 m/s
5 m/s
3 m/s
0 m/s
2600 J/kg
2400 J/kg
2200 J/kg
2000 J/kg
1800 J/kg
1600 J/kg
1400 J/kg
1200 J/kg
1000 J/kg
800 J/kg
600 J/kg
400 J/kg
200 J/kg
70 dBZ
65 dBZ
60 dBZ
55 dBZ
50 dBZ
45 dBZ
40 dBZ
35 dBZ
30 dBZ
25 dBZ
20 dBZ
15 dBZ
10 dBZ
5 dBZ
-1 K
-2 K
-3 K
-4 K
-5 K
-6 K
-7 K
-8 K
-9 K
950 m²/s²
900 m²/s²
850 m²/s²
800 m²/s²
750 m²/s²
700 m²/s²
650 m²/s²
600 m²/s²
550 m²/s²
500 m²/s²
450 m²/s²
400 m²/s²
350 m²/s²
300 m²/s²
250 m²/s²
200 m²/s²
150 m²/s²
100 m²/s²
46 m/s
44 m/s
42 m/s
40 m/s
38 m/s
36 m/s
34 m/s
32 m/s
30 m/s
28 m/s
26 m/s
24 m/s
22 m/s
20 m/s
16 m/s
12 m/s
8 m/s
4 m/s
30 m/s
28 m/s
26 m/s
24 m/s
22 m/s
20 m/s
18 m/s
16 m/s
14 m/s
12 m/s
10 m/s
8 m/s
6 m/s
4 m/s
2 m/s
3.0
2.8
2.6
2.4
2.2
2.0
1.8
1.6
1.4
1.2
1.0
0.8
0.6
0.4
0.2
15
14
13
12
11
10
9
8
7
6
5
4
3
2
1
90%
80%
70%
60%
50%
40%
30%
20%
10%
42
40
38
36
34
32
30
28
26
24
22
20
18
16
14
12
90+ cm
80-90 cm
70-80 cm
60-70 cm
50-60 cm
40-50 cm
30-40 cm
20-30 cm